Time,TemperatureF,DewpointF,PressureIn,WindDirection,WindDirectionDegrees,WindSpeedMPH,WindSpeedGustMPH,Humidity,HourlyPrecipIn,Conditions,Clouds,dailyrainin,SoftwareType,DateUTC
2013-01-15 00:05:00,41.7,28.0,30.24,ENE,72,1.0,3.0,58,0.00,,,0.00,weatherlink.com 1.10,2013-01-15 05:05:00,
2013-01-15 00:20:00,41.4,27.0,30.24,NNE,21,2.0,3.0,58,0.00,,,0.00,weatherlink.com 1.10,2013-01-15 05:20:00,
2013-01-15 00:35:00,41.2,27.0,30.25,NNW,341,2.0,4.0,58,0.00,,,0.00,weatherlink.com 1.10,2013-01-15 05:35:00,
2013-01-15 00:50:00,41.0,27.0,30.24,ENE,57,0.0,2.0,59,0.00,,,0.00,weatherlink.com 1.10,2013-01-15 05:50:00,
2013-01-15 01:05:00,40.8,28.0,30.24,NNW,327,1.0,2.0,60,0.00,,,0.00,weatherlink.com 1.10,2013-01-15 06:05:00,
2013-01-15 01:20:00,40.7,28.0,30.25,NW,316,0.0,3.0,60,0.00,,,0.00,weatherlink.com 1.10,2013-01-15 06:20:00,
2013-01-15 01:35:00,40.6,28.0,30.24,NE,49,0.0,1.0,60,0.00,,,0.00,weatherlink.com 1.10,2013-01-15 06:35:00,
2013-01-15 01:50:00,40.4,27.0,30.26,West,278,1.0,3.0,60,0.00,,,0.00,weatherlink.com 1.10,2013-01-15 06:50:00,
2013-01-15 02:06:00,40.3,28.0,30.26,West,281,2.0,2.0,61,0.00,,,0.00,weatherlink.com 1.10,2013-01-15 07:06:00,
2013-01-15 02:21:00,39.8,28.0,30.26,NE,50,0.0,2.0,63,0.00,,,0.00,weatherlink.com 1.10,2013-01-15 07:21:00,
2013-01-15 02:36:00,39.2,27.0,30.24,NNW,346,0.0,2.0,62,0.00,,,0.00,weatherlink.com 1.10,2013-01-15 07:36:00,
2013-01-15 02:51:00,39.1,27.0,30.25,NW,317,0.0,2.0,63,0.00,,,0.00,weatherlink.com 1.10,2013-01-15 07:51:00,
2013-01-15 03:06:00,38.9,27.0,30.22,NW,316,1.0,2.0,62,0.00,,,0.00,weatherlink.com 1.10,2013-01-15 08:06:00,
2013-01-15 03:21:00,38.9,26.0,30.23,WNW,303,0.0,1.0,61,0.00,,,0.00,weatherlink.com 1.10,2013-01-15 08:21:00,
2013-01-15 03:36:00,38.9,26.0,30.22,NW,323,0.0,1.0,61,0.00,,,0.00,weatherlink.com 1.10,2013-01-15 08:36:00,
2013-01-15 03:51:00,38.7,26.0,30.23,NNW,342,0.0,2.0,61,0.00,,,0.00,weatherlink.com 1.10,2013-01-15 08:51:00,
2013-01-15 04:06:00,38.6,26.0,30.22,West,260,0.0,2.0,61,0.00,,,0.00,weatherlink.com 1.10,2013-01-15 09:06:00,
2013-01-15 04:21:00,38.5,26.0,30.22,NW,306,0.0,2.0,61,0.00,,,0.00,weatherlink.com 1.10,2013-01-15 09:21:00,
2013-01-15 04:36:00,38.4,26.0,30.21,NW,309,0.0,1.0,61,0.00,,,0.00,weatherlink.com 1.10,2013-01-15 09:36:00,
2013-01-15 04:51:00,38.3,26.0,30.20,NNW,328,0.0,2.0,62,0.00,,,0.00,weatherlink.com 1.10,2013-01-15 09:51:00,
2013-01-15 05:06:00,38.2,26.0,30.22,WNW,299,0.0,3.0,62,0.00,,,0.00,weatherlink.com 1.10,2013-01-15 10:06:00,
2013-01-15 05:21:00,37.9,25.0,30.22,NNW,327,0.0,2.0,61,0.00,,,0.00,weatherlink.com 1.10,2013-01-15 10:21:00,
2013-01-15 05:36:00,37.3,26.0,30.22,NNW,342,0.0,1.0,63,0.00,,,0.00,weatherlink.com 1.10,2013-01-15 10:36:00,
2013-01-15 05:51:00,36.8,26.0,30.22,WNW,286,0.0,0.0,64,0.00,,,0.00,weatherlink.com 1.10,2013-01-15 10:51:00,
2013-01-15 06:06:00,36.2,25.0,30.22,WNW,286,0.0,0.0,65,0.00,,,0.00,weatherlink.com 1.10,2013-01-15 11:06:00,
2013-01-15 06:21:00,35.5,26.0,30.22,WNW,286,0.0,0.0,68,0.00,,,0.00,weatherlink.com 1.10,2013-01-15 11:21:00,
2013-01-15 06:36:00,35.2,26.0,30.24,NNW,327,0.0,0.0,69,0.00,,,0.00,weatherlink.com 1.10,2013-01-15 11:36:00,
2013-01-15 06:51:00,35.1,25.0,30.26,WNW,299,0.0,1.0,68,0.00,,,0.00,weatherlink.com 1.10,2013-01-15 11:51:00,
2013-01-15 07:06:00,34.7,25.0,30.27,SW,215,0.0,1.0,69,0.00,,,0.00,weatherlink.com 1.10,2013-01-15 12:06:00,
2013-01-15 07:21:00,34.1,25.0,30.27,South,172,0.0,0.0,70,0.00,,,0.00,weatherlink.com 1.10,2013-01-15 12:21:00,
2013-01-15 07:36:00,33.7,25.0,30.28,NW,321,0.0,1.0,71,0.00,,,0.00,weatherlink.com 1.10,2013-01-15 12:36:00,
2013-01-15 07:51:00,33.2,25.0,30.28,NW,321,0.0,0.0,72,0.00,,,0.00,weatherlink.com 1.10,2013-01-15 12:51:00,
2013-01-15 08:06:00,33.2,25.0,30.29,NW,319,0.0,0.0,72,0.00,,,0.00,weatherlink.com 1.10,2013-01-15 13:06:00,
2013-01-15 08:21:00,34.6,25.0,30.29,SW,234,0.0,0.0,69,0.00,,,0.00,weatherlink.com 1.10,2013-01-15 13:21:00,
2013-01-15 08:36:00,35.4,25.0,30.29,WSW,246,0.0,1.0,67,0.00,,,0.00,weatherlink.com 1.10,2013-01-15 13:36:00,
2013-01-15 08:51:00,35.6,26.0,30.29,SE,126,0.0,2.0,67,0.00,,,0.00,weatherlink.com 1.10,2013-01-15 13:51:00,
2013-01-15 09:06:00,36.5,26.0,30.29,WNW,294,0.0,3.0,65,0.00,,,0.00,weatherlink.com 1.10,2013-01-15 14:06:00,
2013-01-15 09:21:00,37.1,25.0,30.29,NW,324,2.0,2.0,63,0.00,,,0.00,weatherlink.com 1.10,2013-01-15 14:21:00,
2013-01-15 09:36:00,37.8,26.0,30.29,NNW,334,0.0,4.0,62,0.00,,,0.00,weatherlink.com 1.10,2013-01-15 14:36:00,
2013-01-15 09:51:00,38.5,26.0,30.30,West,281,3.0,5.0,60,0.00,,,0.00,weatherlink.com 1.10,2013-01-15 14:51:00,
2013-01-15 10:06:00,39.1,26.0,30.29,East,90,0.0,4.0,59,0.00,,,0.00,weatherlink.com 1.10,2013-01-15 15:06:00,
2013-01-15 10:21:00,39.2,26.0,30.30,West,272,1.0,4.0,59,0.00,,,0.00,weatherlink.com 1.10,2013-01-15 15:21:00,
2013-01-15 10:36:00,39.3,25.0,30.30,NW,323,1.0,4.0,58,0.00,,,0.00,weatherlink.com 1.10,2013-01-15 15:36:00,
2013-01-15 10:51:00,40.1,25.0,30.29,WNW,303,0.0,4.0,56,0.00,,,0.00,weatherlink.com 1.10,2013-01-15 15:51:00,
2013-01-15 11:06:00,40.3,26.0,30.27,WNW,294,0.0,3.0,56,0.00,,,0.00,weatherlink.com 1.10,2013-01-15 16:06:00,
2013-01-15 11:21:00,39.8,25.0,30.26,East,86,1.0,3.0,56,0.00,,,0.00,weatherlink.com 1.10,2013-01-15 16:21:00,
2013-01-15 11:36:00,40.0,25.0,30.25,NW,305,0.0,2.0,56,0.00,,,0.00,weatherlink.com 1.10,2013-01-15 16:36:00,
2013-01-15 11:51:00,40.3,25.0,30.26,West,265,0.0,2.0,55,0.00,,,0.00,weatherlink.com 1.10,2013-01-15 16:51:00,
2013-01-15 12:07:00,40.8,25.0,30.25,North,360,0.0,3.0,54,0.00,,,0.00,weatherlink.com 1.10,2013-01-15 17:07:00,
2013-01-15 12:21:00,40.6,25.0,30.25,WNW,283,1.0,4.0,55,0.00,,,0.00,weatherlink.com 1.10,2013-01-15 17:21:00,
2013-01-15 12:37:00,40.7,25.0,30.25,NW,304,1.0,3.0,54,0.00,,,0.00,weatherlink.com 1.10,2013-01-15 17:37:00,
2013-01-15 12:52:00,40.9,25.0,30.25,NNW,337,1.0,2.0,54,0.00,,,0.00,weatherlink.com 1.10,2013-01-15 17:52:00,
2013-01-15 13:07:00,40.9,25.0,30.25,WNW,301,0.0,3.0,54,0.00,,,0.00,weatherlink.com 1.10,2013-01-15 18:07:00,
2013-01-15 13:22:00,40.9,25.0,30.25,SW,223,1.0,3.0,53,0.00,,,0.00,weatherlink.com 1.10,2013-01-15 18:22:00,
2013-01-15 13:37:00,40.7,25.0,30.25,WNW,288,0.0,3.0,53,0.00,,,0.00,weatherlink.com 1.10,2013-01-15 18:37:00,
2013-01-15 13:52:00,40.9,25.0,30.25,North,5,0.0,2.0,54,0.00,,,0.00,weatherlink.com 1.10,2013-01-15 18:52:00,
2013-01-15 14:07:00,40.7,25.0,30.25,WSW,237,0.0,3.0,53,0.00,,,0.00,weatherlink.com 1.10,2013-01-15 19:07:00,
2013-01-15 14:22:00,40.8,25.0,30.24,NW,309,0.0,1.0,54,0.00,,,0.00,weatherlink.com 1.10,2013-01-15 19:22:00,
2013-01-15 14:37:00,40.7,25.0,30.24,WSW,242,0.0,1.0,53,0.00,,,0.00,weatherlink.com 1.10,2013-01-15 19:37:00,
2013-01-15 14:52:00,40.5,24.0,30.24,SW,232,0.0,1.0,53,0.00,,,0.00,weatherlink.com 1.10,2013-01-15 19:52:00,
2013-01-15 15:07:00,40.6,24.0,30.24,WNW,291,1.0,2.0,53,0.00,,,0.00,weatherlink.com 1.10,2013-01-15 20:07:00,
2013-01-15 15:22:00,40.6,24.0,30.24,West,263,1.0,2.0,53,0.00,,,0.00,weatherlink.com 1.10,2013-01-15 20:22:00,
2013-01-15 15:37:00,40.6,24.0,30.23,WNW,284,0.0,1.0,53,0.00,,,0.00,weatherlink.com 1.10,2013-01-15 20:37:00,
2013-01-15 15:52:00,40.3,24.0,30.22,WNW,294,0.0,1.0,52,0.00,,,0.00,weatherlink.com 1.10,2013-01-15 20:52:00,
2013-01-15 16:07:00,40.2,24.0,30.24,WNW,295,0.0,1.0,53,0.00,,,0.00,weatherlink.com 1.10,2013-01-15 21:07:00,
2013-01-15 16:22:00,39.8,24.0,30.23,WNW,291,0.0,1.0,54,0.00,,,0.00,weatherlink.com 1.10,2013-01-15 21:22:00,
2013-01-15 16:37:00,39.3,24.0,30.23,WNW,291,0.0,0.0,55,0.00,,,0.00,weatherlink.com 1.10,2013-01-15 21:37:00,
2013-01-15 16:52:00,38.9,24.0,30.24,WSW,256,0.0,0.0,56,0.00,,,0.00,weatherlink.com 1.10,2013-01-15 21:52:00,
2013-01-15 17:07:00,38.2,24.0,30.25,WSW,256,0.0,1.0,58,0.00,,,0.00,weatherlink.com 1.10,2013-01-15 22:07:00,
2013-01-15 17:22:00,37.5,25.0,30.25,WSW,256,0.0,0.0,61,0.00,,,0.00,weatherlink.com 1.10,2013-01-15 22:22:00,
2013-01-15 17:37:00,37.1,25.0,30.25,WSW,256,0.0,0.0,61,0.00,,,0.00,weatherlink.com 1.10,2013-01-15 22:37:00,
2013-01-15 17:52:00,36.7,25.0,30.25,WSW,256,0.0,0.0,62,0.00,,,0.00,weatherlink.com 1.10,2013-01-15 22:52:00,
2013-01-15 18:07:00,36.8,25.0,30.24,WSW,256,0.0,0.0,62,0.00,,,0.00,weatherlink.com 1.10,2013-01-15 23:07:00,
2013-01-15 18:22:00,36.3,25.0,30.25,WSW,256,0.0,0.0,64,0.00,,,0.00,weatherlink.com 1.10,2013-01-15 23:22:00,
2013-01-15 18:37:00,35.7,25.0,30.26,WSW,255,0.0,1.0,65,0.00,,,0.00,weatherlink.com 1.10,2013-01-15 23:37:00,
2013-01-15 18:52:00,35.1,25.0,30.26,WNW,302,0.0,1.0,67,0.00,,,0.00,weatherlink.com 1.10,2013-01-15 23:52:00,
2013-01-15 19:07:00,34.6,26.0,30.26,WNW,301,0.0,0.0,70,0.00,,,0.00,weatherlink.com 1.10,2013-01-16 00:07:00,
2013-01-15 19:22:00,34.3,26.0,30.27,WNW,302,0.0,0.0,71,0.00,,,0.00,weatherlink.com 1.10,2013-01-16 00:22:00,
2013-01-15 19:37:00,33.9,25.0,30.26,WNW,301,0.0,0.0,71,0.00,,,0.00,weatherlink.com 1.10,2013-01-16 00:37:00,
2013-01-15 19:52:00,33.6,25.0,30.26,WNW,302,0.0,0.0,72,0.00,,,0.00,weatherlink.com 1.10,2013-01-16 00:52:00,
2013-01-15 20:07:00,33.8,26.0,30.25,WNW,302,0.0,0.0,72,0.00,,,0.00,weatherlink.com 1.10,2013-01-16 01:07:00,
2013-01-15 20:22:00,33.7,26.0,30.25,WNW,302,0.0,0.0,72,0.00,,,0.00,weatherlink.com 1.10,2013-01-16 01:22:00,
2013-01-15 20:37:00,34.7,25.0,30.25,WNW,302,0.0,1.0,67,0.00,,,0.00,weatherlink.com 1.10,2013-01-16 01:37:00,
2013-01-15 20:52:00,35.1,24.0,30.25,WNW,301,0.0,0.0,65,0.00,,,0.00,weatherlink.com 1.10,2013-01-16 01:52:00,
2013-01-15 21:07:00,35.3,24.0,30.25,NNW,334,0.0,1.0,64,0.00,,,0.00,weatherlink.com 1.10,2013-01-16 02:07:00,
2013-01-15 21:22:00,35.2,24.0,30.25,NNW,334,0.0,1.0,63,0.00,,,0.00,weatherlink.com 1.10,2013-01-16 02:22:00,
2013-01-15 21:37:00,35.2,24.0,30.25,NNW,333,0.0,1.0,63,0.00,,,0.00,weatherlink.com 1.10,2013-01-16 02:37:00,
2013-01-15 21:52:00,35.1,23.0,30.25,North,355,0.0,1.0,62,0.00,,,0.00,weatherlink.com 1.10,2013-01-16 02:52:00,
2013-01-15 22:07:00,35.0,23.0,30.24,NW,321,0.0,1.0,63,0.00,,,0.00,weatherlink.com 1.10,2013-01-16 03:07:00,
2013-01-15 22:22:00,34.9,23.0,30.23,NW,312,0.0,1.0,63,0.00,,,0.00,weatherlink.com 1.10,2013-01-16 03:22:00,
2013-01-15 22:37:00,34.7,23.0,30.23,WNW,301,0.0,0.0,63,0.00,,,0.00,weatherlink.com 1.10,2013-01-16 03:37:00,
2013-01-15 22:52:00,34.6,23.0,30.22,WNW,302,0.0,1.0,63,0.00,,,0.00,weatherlink.com 1.10,2013-01-16 03:52:00,
2013-01-15 23:07:00,34.4,23.0,30.23,WNW,301,0.0,0.0,64,0.00,,,0.00,weatherlink.com 1.10,2013-01-16 04:07:00,
2013-01-15 23:23:00,34.3,23.0,30.24,WNW,301,0.0,1.0,64,0.00,,,0.00,weatherlink.com 1.10,2013-01-16 04:23:00,
2013-01-15 23:37:00,34.0,23.0,30.24,WNW,301,0.0,0.0,65,0.00,,,0.00,weatherlink.com 1.10,2013-01-16 04:37:00,
2013-01-15 23:52:00,34.0,24.0,30.23,WNW,302,0.0,0.0,66,0.00,,,0.00,weatherlink.com 1.10,2013-01-16 04:52:00,